COSMOS 2251 DEB, 47073

Orbit data source: Space-Track

COSMOS 2251 DEB, 47073 is space debris in LEO originally from a launch on Wed, 16 Jun 1993 UTC launched from the Plesetsk Missile And Space Complex (PKMTR). The debris from Iridium 33, an American commercial communications satellite, has been tracked extensively since its accidental collision with the defunct Russian satellite Cosmos 2251 in 2009. This event, occurring at high speed in low Earth orbit (LEO), generated thousands of pieces of space debris, significantly increasing the risk of further collisions. The Iridium 33 debris cloud has impacted space traffic management and orbital debris mitigation strategies, making it a subject of ongoing study in space situational awareness.

Loading next visibility...
COSMOS 2251 DEB details
Identifier
47073, 1993-036BYD
Orbit
LEO
Last TLE update6 days ago
Origin
Flag of CISKVR (CIS)
ManufacturerUnknown
MissionSpacecraft
Bus & MotorUnknown
MassUnknown
Launch date (UTC)
1993-06-16 (32 years ago)
Launch vehicleUnknown
Launch site
Plesetsk Missile And Space Complex (PKMTR)
Object type
Payload
Rocket body
Debris
Shape & HBRUnknown
Radar Cross SectionSmall (<0.1 m²)

Expand to show TLE details & history

TLE from 6 days ago
0 COSMOS 2251 DEB
1 47073U 93036BYD 24355.98473806  .00002734  00000-0  15533-2 0  9991
2 47073  74.0827 102.1185 0164317 227.3554 131.3636 14.03791672553533
Epoch: 2024-12-20T23:38Z
Definitive object data (Epoch: 2024-12-20T23:38:01.368Z)
Latitude-0.00001°
Longitude17.57039°
Altitude963.189 km
Speed7.33 km/s
True Right ascension06h 48m 28s
True Declination0° 00' 00"
Sunlit
Object was in full shadow at TLE epoch
Visualization TLE readout
Latitude50.84264°
Longitude167.23881°
Altitude885.686 km
Speed7.416 km/s
Apparent Right ascension00h 59m 25s
Apparent Declination71° 17' 24"
Sunlit
Object is in daylight
Visualization observer readout
Local Sidereal Time16:26:41
Azimuth16.455° NNE
Elevation27.108°
Doppler factor1
Orbital elements
Apogee altitude997.586 km
Perigee altitude759.113 km
Semi-major axis7,256.487 km
Eccentricity0.0164317
Inclination74.0827°
RAAN102.1185°
Arg. of periapsis227.3554°
True anomaly132.75773°
Mean anomaly131.3636°
Eccentric anomaly132.06256°
Mean motion3.51118 °/min
BSTAR0.0015533
Orbital period102.53 mins
Loading maneuver chart data...

COSMOS 2251 DEB Visibility forecast

Observer location: undefined°, undefined

Span
Click to sort rows by Start time (UTC) header in descending order
Start Az.
Max El. time (UTC)
Max El. Az.
Max El.
End time (UTC)
End Az.
7 mins2024-12-26 17:04:25.092Z16.574° NNE2024-12-26 17:06:25.092Z53.265° ENE31.957°2024-12-26 17:11:25.092Z129.68° SE
8 mins2024-12-26 18:47:25.092Z310.942° NW2024-12-26 18:51:25.092Z256.393° W24.247°2024-12-26 18:55:25.092Z207.886° SW
8 mins2024-12-27 06:16:25.092Z136.121° SSE2024-12-27 06:19:25.092Z102.661° ESE21.67°2024-12-27 06:24:25.092Z48.315° ENE
10 mins2024-12-27 07:59:25.092Z220.4° SW2024-12-27 08:04:25.092Z308.478° NW39.149°2024-12-27 08:09:25.092Z8.308° NNE
5 mins2024-12-27 16:59:25.092Z358.41° N2024-12-27 17:03:25.092Z57.99° ENE35.097°2024-12-27 17:04:25.092Z87.737° E
|